Regional Weather Roundup
Issued by NWS

Home | Current Version | Previous Version | Graphics & Text | Print | Product List | Glossary On
Versions: 1 2 3 4 5 6 7 8 9 10 11 12 13 14 15 16 17 18 19 20 21 22 23 24 25 26 27 28 29 30 31 32 33 34 35 36 37 38 39 40 41 42 43 44 45 46 47 48 49 50
000
ASUS43 KIND 211009
RWRIN

WEATHER ROUNDUP FOR INDIANA
NATIONAL WEATHER SERVICE INDIANAPOLIS IN
600 AM EDT MON AUG 21 2017

NOTE: "FAIR" INDICATES FEW OR NO CLOUDS BELOW 12,000 FEET WITH NO
SIGNIFICANT WEATHER AND/OR OBSTRUCTIONS TO VISIBILITY.

* - STATION DOES NOT REPORT WEATHER SUCH AS PRECIPITATION OR FOG.

+ - STATION NOT QUALITY CONTROLLED BY THE NATIONAL WEATHER SERVICE.
    USE DATA WITH CAUTION...ESPECIALLY DEWPOINT AND RELATIVE
    HUMIDITY OBSERVATIONS.

INZ001>003-010>013-019-020-211100-
NORTHWEST INDIANA

CITY           SKY/WX    TMP DP  RH WIND       PRES   REMARKS
GARY /AIRPORT/ PTCLDY    72  68  88 SE7       30.05S
KNOX *+        CLOUDY    70  68  94 CALM      30.07S
LA PORTE +     CLOUDY    69  67  94 S3        30.08S
MICHIGAN CITY+ CLOUDY    72  64  78 S6        30.06S
MONTICELLO +   CLOUDY    69  68  95 CALM      30.06F
RENSSELAER +   CLOUDY    68  63  83 CALM      30.06F
VALPARAISO     CLOUDY    71  68  90 SE6       30.07S

$$

LMZ046-743>745-211100-
SOUTHERN LAKE MICHIGAN

STATION/POSITION TIME  TEMP    WIND        PRES    WAVE
                       AIR SEA DIR/SP/G            HT
                 (UTC) (F)     (DEG/KT/KT) (MB)    (FT)
BURNS HARBOR     0940   74     180/  8/ 16 1017.6S
MICHIGAN CITY    0940   73     150/ 10/ 14   N/A
5NW MICH CITY    1000   74 74  180/ 14/ 17   N/A     1

$$

INZ004-005-014>016-021>024-211100-
NORTH CENTRAL INDIANA

CITY           SKY/WX    TMP DP  RH WIND       PRES   REMARKS
GOSHEN         CLOUDY    72  65  78 SW9       30.09R
LOGANSPORT +   MOCLDY    68  66  94 CALM      30.08F
PERU/GRISSOM   CLOUDY    70  68  92 S6        30.07R
ROCHESTER +    CLOUDY    72  70  94 NE5       30.10R THUNDER
SOUTH BEND     PTCLDY    71  68  90 S10       30.08R
WARSAW +       LGT RAIN  72  68  88 W6        30.11R

$$

INZ006>009-017-018-025>027-211100-
NORTHEAST INDIANA

CITY           SKY/WX    TMP DP  RH WIND       PRES   REMARKS
AUBURN +       CLOUDY    72  64  78 SW5       30.11R
FORT WAYNE     CLOUDY    71  66  84 SW8       30.10R
HUNTINGTON +   MOCLDY    71  67  89 CALM      30.10S

$$

INZ028-029-035-036-043>045-051>053-211100-
WEST CENTRAL INDIANA

CITY           SKY/WX    TMP DP  RH WIND       PRES   REMARKS
GREENCASTLE +  CLEAR     68  68 100 CALM      30.12S
LAFAYETTE      CLOUDY    68  68 100 S6        30.05F
TERRE HAUTE    PTCLDY    71  68  90 CALM      30.10S

$$

INZ030>032-037>040-046>048-054>057-064-065-211100-
CENTRAL INDIANA

CITY           SKY/WX    TMP DP  RH WIND       PRES   REMARKS
CP ATTERBURY + PTCLDY    64  64 100 CALM      30.13S
FRANKFORT +    CLOUDY    71  67  88 S5        30.10F
GREENWOOD *+   CLEAR     68  66  93 CALM      30.14R
INDIANAPOLIS   PTCLDY    72  69  90 E3        30.11R
-EAGLE CREEK   CLEAR     72  68  87 S3        30.11S
KOKOMO +       CLOUDY    68  65  90 S8        30.09F
MARION +       CLOUDY    68  66  94 S7G18     30.11S
MT COMFORT *+  MOCLDY    68  68 100 E3        30.14R
SHELBYVILLE    CLEAR     72  67  84 S6        30.13R
ZIONSVILLE +   CLOUDY    67  64  92 CALM      30.12F

$$

INZ033-034-041-042-049-050-058-059-211100-
EAST CENTRAL INDIANA

CITY           SKY/WX    TMP DP  RH WIND       PRES   REMARKS
MUNCIE         MOCLDY    74  68  81 S5        30.12F
RICHMOND +     CLOUDY    70  68  94 SW8       30.16R

$$

INZ060-061-067>069-081>083-085>088-211100-
SOUTHWEST INDIANA

CITY           SKY/WX    TMP DP  RH WIND       PRES   REMARKS
EVANSVILLE     PTCLDY    69  67  93 CALM      30.11R
HUNTINGBURG +  PTCLDY    70  68  93 CALM      30.12R
WASHINGTON +   CLEAR     69  67  93 MISG      30.12R

$$

INZ062-063-066-070>080-084-089>092-211100-
SOUTH CENTRAL AND SOUTHEAST INDIANA

CITY           SKY/WX    TMP DP  RH WIND       PRES   REMARKS
BEDFORD +      CLEAR     68  66  94 CALM      30.12S
BLOOMINGTON    PTCLDY    68  64  87 S3        30.12S
MADISON *+     CLEAR     68  66  94 CALM      30.16S
NORTH VERNON + CLEAR     66  64  94 CALM      30.14S
SEYMOUR +      CLEAR     68  68 100 E3        30.13R

$$





USA.gov is the U.S. government's official web portal to all federal, state and local government web resources and services.